パンスターズ彗星

C/2016 E1 ( PanSTARRS )

English version
Home page
Updated on May 20, 2019

---------------------------------------------------------------------

・ プロフィール

発見日 2016年3月3日
発見光度 21.1等
発見者 Pan-STARRS 1 telescope (Haleakala)

・ 写真集

・ 軌道要素

Epoch 2017 June 16.0 TT = JDT 2457920.5
T 2017 June 1.42743 TT                                  MPCW
q   8.1767903            (2000.0)            P               Q
z  -0.0003842      Peri.   47.30948     -0.79986493     +0.08023508
 +/-0.0000011      Node   233.03595     -0.44393550     +0.58783556
e   1.0031415      Incl.  131.89160     +0.40390266     +0.80499173
From 161 observations 2016 Mar. 3-2019 Apr. 25, mean residual 0".4.

・ 光度変化

        m1 = 5.7 + 5 logΔ + 10.0 log r

---------------------------------------------------------------------

軌道要素はM.P.E.C. 2019-J142に掲載されたものです。
光度グラフはComet for Windowsで作成したものです。

---------------------------------------------------------------------

Copyright(C) Seiichi Yoshida (comet@aerith.net). All rights reserved.